Probability
0 0 0 0 0 0 0 0 0 0 0 0 0 1 7 22 38 56 70 72 74 82 82 71 57 52 59 76 89 94 94 92 90 89 87 86 87 89 90 87 83 81 82 83
0 0 0 0 0 0 0 0 0 0 0 0 0 0 5 17 33 51 65 70 72 80 80 71 61 56 58 69 81 89 91 92 91 90 89 88 89 89 89 83 76 71 68 67
0 0 0 0 0 0 0 0 0 0 0 0 0 0 2 8 19 33 48 56 62 69 74 71 68 67 66 70 78 83 87 90 91 91 90 90 90 90 88 80 69 59 51 46
0 0 0 0 0 0 0 0 0 0 0 0 0 0 0 1 5 14 26 36 43 51 59 64 68 72 73 74 76 80 83 86 88 89 88 89 90 91 88 79 66 53 43 37
0 0 0 0 0 0 0 0 0 0 0 0 0 0 0 0 1 4 11 16 23 31 37 43 50 56 61 65 68 72 77 80 80 80 82 86 90 90 86 76 64 55 45 37
0 0 0 0 0 0 0 0 0 0 0 0 0 0 0 0 0 1 2 4 7 12 16 20 26 33 40 48 55 61 68 73 73 72 75 81 85 86 81 73 66 58 46 37
0 0 0 0 0 0 0 0 0 0 0 0 0 0 0 0 0 0 0 0 1 2 3 6 11 16 22 28 37 45 54 62 66 69 72 76 78 79 77 73 68 57 42 33
0 0 0 0 0 0 0 0 0 0 0 0 0 0 0 0 0 0 0 0 0 0 0 1 3 6 8 11 15 24 36 47 57 66 71 73 74 75 74 70 64 52 36 26
0 0 0 0 0 0 0 0 0 0 0 0 0 0 0 0 0 0 0 0 0 0 0 0 0 1 2 2 3 9 22 34 44 54 60 63 65 67 65 61 52 40 27 19
0 0 0 0 0 0 0 0 0 0 0 0 0 0 0 0 0 0 0 0 0 0 0 0 0 1 1 1 1 5 14 23 30 36 41 42 45 48 48 44 35 24 15 11
0 0 0 0 0 0 0 0 0 0 0 0 0 0 0 0 0 0 0 0 0 0 0 0 0 1 2 2 1 3 7 13 16 21 24 24 25 27 28 25 19 11 6 4
0 0 0 0 0 0 0 0 0 0 0 0 0 0 0 0 0 0 0 0 0 0 0 0 0 0 1 2 2 2 3 5 8 11 14 15 14 14 12 10 7 4 1 1
0 0 0 0 0 0 0 0 0 0 0 0 0 0 0 0 0 0 0 0 0 0 0 0 0 0 0 1 1 1 2 3 4 6 7 8 6 5 4 2 1 1 0 0
0 0 0 0 0 0 0 0 0 0 0 0 0 0 0 0 0 0 0 0 0 0 0 0 0 0 0 0 0 1 1 1 2 3 4 4 2 1 1 0 0 0 0 0
0 0 0 0 0 0 0 0 0 0 0 0 0 0 0 0 0 0 0 0 0 0 0 0 0 0 0 0 0 0 0 0 1 1 2 2 1 0 0 0 0 0 0 0
0 0 0 0 0 0 0 0 0 0 0 0 0 0 0 0 0 0 0 0 0 0 0 0 0 0 0 0 0 0 0 0 0 0 0 0 0 0 0 0 0 0 0 0
0 0 0 0 0 0 0 0 0 0 0 0 0 0 0 0 0 0 0 0 0 0 0 0 0 0 0 0 0 0 0 0 0 0 0 0 0 0 0 0 0 0 0 0
0 0 0 0 0 0 0 0 0 0 0 0 0 0 0 0 0 0 0 0 0 0 0 0 0 0 0 0 0 0 0 0 0 0 0 0 0 0 0 0 0 0 0 0
0 0 0 0 0 0 0 0 0 0 0 0 0 0 0 0 0 0 0 0 0 0 0 0 0 0 0 0 0 0 0 0 0 0 0 0 0 0 0 0 0 0 0 0
0 0 0 0 0 0 0 0 0 0 0 0 0 0 0 0 0 0 0 0 0 0 0 0 0 0 0 0 0 0 0 0 0 0 0 0 0 0 0 0 0 0 0 0
0 0 0 0 0 0 0 0 0 0 0 0 0 0 0 0 0 0 0 0 0 0 1 0 0 0 0 0 0 0 0 0 0 0 0 0 0 0 0 0 0 0 0 0
0 0 0 0 0 0 0 0 0 0 0 0 0 0 0 0 0 0 0 0 0 0 0 0 0 0 0 0 0 0 0 0 0 0 0 0 0 0 0 0 0 0 0 0
0 0 0 0 0 0 0 0 0 0 0 0 0 0 0 0 0 0 0 0 0 1 1 1 0 0 0 0 0 0 0 0 0 0 0 0 0 0 0 0 0 0 0 0
0 0 0 0 0 0 0 0 0 0 0 0 0 0 0 0 0 0 0 0 1 2 3 2 1 1 0 0 0 0 0 0 0 0 0 0 0 0 0 0 0 0 0 0
0 0 0 0 0 0 0 0 0 0 0 0 0 0 0 0 0 0 0 0 1 4 5 4 2 1 0 0 0 0 0 0 0 0 0 0 0 0 0 0 0 0 0 0
0 0 0 0 0 0 0 0 0 0 0 0 0 0 0 1 1 1 0 0 1 4 6 4 2 1 0 0 0 0 0 0 0 0 0 0 0 0 0 0 0 0 0 0
Wind_Speed
3 4 1 3 2 3 2 4 4 2 2 5 5 6 3 5 6 7 7 5 3 2 2 0 3 6 7 8 8 9 9 9 8 7 7 8 8 8 7 6 6 5 5 5
6 3 4 1 1 4 4 5 4 2 1 6 7 8 1 2 5 6 6 6 5 3 2 1 2 4 7 8 9 9 10 10 10 8 7 6 6 6 5 4 3 4 4 4
1 4 2 1 3 4 3 4 5 6 7 9 9 11 7 5 3 4 5 6 6 5 4 3 2 1 3 4 6 7 8 9 10 10 7 6 6 5 5 5 4 4 3 2
1 1 2 3 2 5 5 3 7 9 11 10 8 12 9 5 5 4 5 6 6 5 5 5 4 4 4 4 5 5 6 7 7 8 9 11 9 9 9 6 5 6 6 6
1 3 5 6 4 6 7 6 9 12 14 15 14 14 8 6 6 3 5 6 6 6 6 6 6 6 5 5 4 4 4 5 6 8 9 10 10 9 6 6 8 8 7 7
4 4 6 5 3 4 6 8 12 12 12 14 9 10 9 3 2 3 4 5 5 5 5 5 6 6 6 6 5 5 4 4 4 6 7 9 10 9 8 8 8 7 5 6
2 4 3 5 7 5 6 9 8 7 7 5 2 8 6 4 3 1 1 2 4 4 6 6 7 7 7 7 6 6 6 5 5 6 7 8 9 9 9 9 8 7 6 6
4 2 2 2 4 5 5 8 8 9 10 11 10 10 3 4 3 3 3 4 5 6 6 7 8 8 8 8 7 7 7 7 6 6 6 6 6 5 5 6 6 6 5 4
5 3 3 2 4 7 7 7 8 11 15 15 10 6 3 5 6 6 6 6 7 7 7 8 9 9 9 9 8 8 8 7 6 5 5 4 5 4 4 5 6 5 5 4
6 9 5 4 6 4 6 8 7 8 9 11 10 10 5 4 5 5 6 8 8 8 8 9 9 9 9 8 8 7 6 6 5 4 3 2 2 3 4 5 5 5 5 4
7 9 7 6 8 9 6 8 8 9 9 11 12 7 3 3 5 7 9 9 8 8 8 8 8 8 8 7 7 5 5 4 3 3 2 1 1 2 2 3 4 4 4 4
5 8 11 10 2 3 8 10 9 10 11 12 13 11 3 4 6 8 10 10 8 8 7 7 7 7 6 6 5 4 3 2 2 1 1 1 2 3 3 3 3 3 3 3
3 7 11 11 7 8 8 10 11 11 12 13 15 12 0 5 9 12 11 10 8 7 7 6 6 5 5 4 3 2 1 0 1 0 1 2 3 3 3 2 2 3 3 3
5 11 14 16 15 14 12 13 13 14 14 16 18 19 16 16 16 14 11 9 8 7 6 6 5 4 4 3 3 2 1 1 1 1 3 4 4 4 3 3 3 3 3 4
6 12 14 16 16 16 17 18 18 18 19 21 21 21 19 17 15 12 9 8 8 7 7 6 5 5 4 3 3 2 2 2 2 2 4 5 5 5 5 5 5 4 4 5
5 10 14 16 16 17 19 20 21 22 21 21 22 21 17 13 9 8 8 8 9 8 7 6 5 5 5 4 4 4 3 3 4 4 5 6 7 7 7 7 6 5 5 5
8 9 13 15 14 14 14 12 13 14 15 17 18 16 14 13 12 10 8 8 9 8 7 6 6 6 6 5 5 5 4 4 4 5 6 8 8 9 9 9 8 7 6 6
8 9 8 10 9 10 6 5 8 12 14 14 15 16 16 15 11 9 9 8 9 8 8 7 6 6 6 6 6 5 5 5 5 5 6 7 8 9 9 9 9 8 7 6
5 7 7 7 10 11 9 8 9 11 15 15 14 13 14 10 8 11 10 8 8 8 7 6 6 7 6 7 6 6 6 6 6 6 6 7 8 8 9 9 9 8 7 7
5 6 8 8 10 9 7 9 7 9 13 8 10 12 13 10 12 10 2 5 7 7 7 6 6 7 7 7 7 7 7 7 7 6 7 7 8 8 9 9 9 8 7 7
6 7 9 11 12 9 7 9 9 10 11 17 17 17 17 15 14 13 6 6 7 8 8 8 8 8 8 8 7 8 7 7 6 6 7 7 7 7 8 8 8 8 8 8
8 7 6 7 8 4 12 14 13 17 21 22 21 21 20 19 18 16 12 10 9 9 10 11 9 9 8 8 8 9 8 6 6 6 7 8 8 7 8 8 8 8 8 9
6 7 8 8 9 14 18 18 19 20 22 22 22 22 21 21 19 18 16 12 12 12 11 11 11 11 10 10 10 10 8 7 7 8 9 8 9 7 8 9 9 9 9 8
6 6 8 10 9 15 16 18 20 22 22 23 22 22 22 21 20 18 16 13 11 12 13 13 13 12 11 11 11 10 8 8 9 9 9 9 9 9 8 7 8 9 9 8
9 8 8 10 11 14 14 21 23 23 23 23 23 21 20 20 19 17 15 14 11 11 12 14 14 13 13 12 12 11 9 10 10 10 9 9 9 8 8 8 5 6 6 5
8 7 6 6 12 11 13 17 20 21 21 22 22 21 20 18 18 17 15 13 11 11 12 14 15 15 14 13 13 12 11 11 11 10 10 9 8 8 8 8 7 7 5 6
Wind_Direction
201 230 50 30 351 347 298 283 283 317 1 287 284 291 332 8 13 18 17 12 13 12 29 240 215 217 217 215 215 216 220 216 216 219 224 228 234 240 244 251 256 258 265 269
201 122 53 32 180 224 237 260 270 232 270 292 293 284 221 50 40 29 29 30 30 42 55 81 193 204 212 213 215 218 218 219 218 221 223 229 239 242 234 232 239 246 251 264
334 61 38 200 188 230 237 284 313 310 300 262 275 266 199 165 124 82 66 55 47 35 26 26 5 303 258 242 240 238 231 226 226 228 227 227 226 227 221 214 214 217 221 235
244 94 282 268 266 287 275 326 300 292 288 290 290 288 267 197 172 116 75 61 53 42 27 18 3 349 327 309 289 272 260 248 238 233 229 225 223 226 225 212 203 197 194 198
259 280 277 272 291 293 308 318 290 287 284 282 273 272 273 184 212 129 75 57 48 38 25 12 360 348 340 326 310 291 275 266 255 248 240 232 232 232 225 214 205 196 191 195
289 268 274 289 286 287 293 275 268 258 262 266 275 282 278 234 186 133 90 57 39 24 9 358 346 339 334 330 323 308 288 275 261 250 244 240 239 236 225 215 206 193 181 181
269 228 209 252 258 219 272 298 291 268 245 274 12 283 280 83 129 147 54 15 2 351 341 338 334 330 325 322 320 312 300 286 271 259 249 244 241 238 228 216 203 188 180 179
293 267 146 242 298 314 317 306 307 307 305 309 297 267 302 113 163 200 251 287 299 304 313 316 317 317 313 310 309 303 296 287 280 272 262 252 241 230 218 201 186 177 176 168
292 301 148 227 285 293 294 293 323 294 282 280 272 260 252 172 208 226 248 266 281 292 298 300 304 305 303 302 302 300 294 288 284 279 273 259 242 223 194 173 167 158 156 154
287 287 262 201 226 214 284 307 281 278 292 289 280 278 268 195 234 256 273 285 293 293 294 297 298 296 295 296 298 299 295 294 287 271 255 237 227 198 172 162 152 148 146 145
271 276 271 229 249 281 260 261 277 284 279 287 292 298 30 270 285 296 302 303 297 292 296 299 299 298 294 292 294 292 292 298 296 283 260 231 184 150 149 139 137 139 136 146
272 281 284 277 284 280 273 274 270 273 280 269 275 285 313 261 277 288 296 298 293 289 295 300 303 301 297 296 297 292 286 296 295 266 226 189 146 132 132 130 131 129 131 146
260 270 278 269 209 204 233 244 257 267 272 270 271 275 272 236 269 284 290 291 287 281 288 298 299 297 292 292 293 283 282 307 295 250 164 147 130 121 110 105 110 123 131 131
263 268 275 285 296 301 280 267 255 258 265 271 270 281 291 294 297 297 295 288 279 277 283 291 291 280 274 270 267 257 215 203 221 179 140 137 132 131 135 140 133 132 142 143
250 272 277 280 286 287 283 279 273 258 259 271 281 287 295 303 303 300 294 284 275 275 280 284 281 270 255 239 232 228 219 203 202 182 167 160 158 157 159 155 150 154 156 143
251 280 286 283 282 282 279 274 271 268 266 267 273 279 287 295 296 286 274 268 272 276 278 276 263 250 237 229 223 218 230 221 208 194 185 173 168 167 166 163 159 156 148 135
257 272 287 284 291 289 274 273 275 271 266 267 271 281 293 296 291 283 275 269 273 276 273 267 254 242 233 225 221 227 228 229 223 201 187 179 176 171 171 167 162 157 150 141
268 272 268 282 288 263 290 326 293 287 282 280 278 282 289 292 293 280 267 268 272 269 264 258 249 238 229 223 217 227 231 230 222 206 189 178 176 171 168 167 161 153 149 142
243 250 266 276 282 282 290 299 301 293 290 291 292 294 295 303 287 266 245 238 252 260 257 254 244 235 225 223 221 227 232 229 220 207 193 182 177 171 170 169 160 153 150 144
189 231 262 271 284 287 321 12 353 298 283 327 330 315 308 296 281 297 308 201 221 230 231 230 228 224 218 218 220 232 237 229 221 204 186 174 174 175 172 162 157 154 151 148
240 239 252 273 275 277 356 4 320 292 331 345 326 314 304 292 287 302 290 231 217 213 212 211 216 215 215 212 216 233 239 230 219 193 176 167 167 169 165 159 157 158 158 152
291 283 274 273 271 292 14 341 329 321 320 313 308 303 299 295 290 285 274 250 229 217 207 203 205 208 207 209 216 231 236 224 208 191 179 168 168 172 162 163 164 164 157 155
263 304 313 299 299 335 339 330 328 325 315 309 303 300 298 295 292 287 277 260 237 223 210 201 201 204 203 205 217 232 228 212 205 196 185 174 171 174 170 173 169 168 174 177
286 326 296 293 299 331 333 340 339 333 324 316 309 302 297 293 291 287 280 268 243 223 209 200 199 203 203 204 213 226 222 206 205 199 187 178 177 180 178 183 180 182 184 182
346 332 313 292 327 337 343 348 343 337 334 329 323 315 308 302 295 289 283 272 251 226 210 200 199 202 203 201 207 214 210 203 205 198 189 187 186 185 181 189 179 198 186 176
13 5 342 337 346 326 338 346 344 342 341 338 336 334 331 326 317 307 295 284 264 234 212 204 202 201 200 198 202 206 203 202 205 199 194 193 193 183 187 179 164 65 66 89